Regional Weather Roundup
Issued by NWS

Home | Current Version | Previous Version | Text Only | Print | Product List | Glossary Off
Versions: 1 2 3 4 5 6 7 8 9 10 11 12 13 14 15 16 17 18 19 20 21 22 23 24 25 26 27 28 29 30 31 32 33 34 35 36 37 38 39 40 41 42 43 44 45 46 47 48 49 50

000
ASUS43 KBIS 171002
RWRND

NORTH DAKOTA REGIONAL WEATHER ROUNDUP
NATIONAL WEATHER SERVICE BISMARCK ND
400 AM CST FRI NOV 17 2017

NOTE: "FAIR" INDICATES FEW OR NO CLOUDS BELOW 12,000 FEET WITH NO
SIGNIFICANT WEATHER AND/OR OBSTRUCTIONS TO VISIBILITY.


NDZ001>003-009>011-017-171100-
NORTHWEST NORTH DAKOTA

CITY           SKY/WX    TMP DP  RH WIND       PRES   REMARKS
WILLISTON      CLEAR     20  13  74 N6        29.65S WCI  12
MINOT          CLOUDY    25  15  66 W18       29.60R WCI  11
$$

NDZ018>021-031>035-040>046-171100-
SOUTHWEST NORTH DAKOTA

CITY           SKY/WX    TMP DP  RH WIND       PRES   REMARKS
BISMARCK       CLOUDY    34  32  92 CALM      29.61R
DICKINSON      CLOUDY    34  26  72 W9        29.59R
GARRISON         N/A     28  20  71 NW20      29.59R WCI  15
HETTINGER ARPT CLOUDY    31  27  85 CALM      29.63R
$$

NDZ004>008-012>016-024-026-027-054-171100-
NORTHEAST NORTH DAKOTA

CITY           SKY/WX    TMP DP  RH WIND       PRES   REMARKS
GRAND FORKS    CLOUDY    33  30  88 S17       29.57F
GRND FRKS AFB  CLOUDY    32  29  87 S14       29.56F
DEVILS LAKE    MOCLDY    35  30  82 NW16      29.56R
$$

NDZ022-023-025-028>030-036>039-047>053-171100-
SOUTHEAST NORTH DAKOTA

CITY           SKY/WX    TMP DP  RH WIND       PRES   REMARKS
FARGO          CLOUDY    34  27  75 SE12      29.62F
JAMESTOWN      CLOUDY    27  25  92 S5        29.56S
$$





USA.gov is the U.S. government's official web portal to all federal, state and local government web resources and services.